DW3588 Weather Reports


Display with metric or nautical units.
time (UTC)temp
F
wind
direction
speed
MPH
gust
MPH
rain 1hr
in
rain 24hr
in
rain mn
in
humidity
%
barometer
mb
20260508035851 72 304 1.0 2.0 0.00 0.00 0.00 47 1014.7
20260508035618 72 304 1.0 2.0 0.00 0.00 0.00 47 1014.6
20260508034849 73 304 1.0 2.0 0.00 0.00 0.00 47 1014.6
20260508034346 73 304 1.0 2.0 0.00 0.00 0.00 47 1014.5
20260508033844 73 304 1.0 4.0 0.00 0.00 0.00 46 1014.5
20260508033603 74 304 2.0 5.0 0.00 0.00 0.00 45 1014.4
20260508032842 74 306 3.0 5.0 0.00 0.00 0.00 45 1014.3
20260508032340 74 301 4.0 8.0 0.00 0.00 0.00 45 1014.2
20260508031838 75 310 4.0 8.0 0.00 0.00 0.00 44 1014.2
20260508031338 75 296 4.0 8.0 0.00 0.00 0.00 44 1014.2
20260508030837 76 317 4.0 7.0 0.00 0.00 0.00 43 1014.1
20260508030334 76 304 2.0 7.0 0.00 0.00 0.00 43 1014.1
20260508025829 77 298 3.0 6.0 0.00 0.00 0.00 43 1014.0
20260508025327 77 301 3.0 8.0 0.00 0.00 0.00 43 1014.0
20260508025023 78 284 3.0 7.0 0.00 0.00 0.00 42 1014.0
20260508024917 78 276 3.0 8.0 0.00 0.00 0.00 43 1014.0
20260508023823 79 284 3.0 8.0 0.00 0.00 0.00 42 1014.1
20260508023321 79 306 2.0 8.0 0.00 0.00 0.00 41 1014.1
20260508022817 80 267 3.0 7.0 0.00 0.00 0.00 41 1014.0
20260508022317 80 272 4.0 9.0 0.00 0.00 0.00 41 1013.9
20260508022036 80 275 4.0 9.0 0.00 0.00 0.00 41 1013.9
20260508021537 80 255 4.0 9.0 0.00 0.00 0.00 41 1013.9
20260508020813 80 268 4.0 9.0 0.00 0.00 0.00 41 1013.8
20260508020308 80 258 4.0 10.0 0.00 0.00 0.00 41 1013.8
20260508015808 80 271 5.0 10.0 0.00 0.00 0.00 41 1013.8
20260508015309 81 283 5.0 10.0 0.00 0.00 0.00 41 1013.8
20260508015029 81 269 5.0 10.0 0.00 0.00 0.00 41 1013.8
20260508014307 82 269 5.0 10.0 0.00 0.00 0.00 42 1013.8
20260508013804 82 303 5.0 10.0 0.00 0.00 0.00 42 1013.8
20260508013302 82 307 5.0 11.0 0.00 0.00 0.00 42 1013.8
20260508012803 83 280 5.0 11.0 0.00 0.00 0.00 42 1013.7
20260508012743 83 300 4.0 8.0 0.00 0.00 0.00 42 1013.8
20260508011803 83 298 4.0 11.0 0.00 0.00 0.00 42 1013.8
20260508011303 84 290 4.0 11.0 0.00 0.00 0.00 41 1013.8
20260508010802 84 240 5.0 9.0 0.00 0.00 0.00 41 1013.8
20260508010304 85 301 5.0 9.0 0.00 0.00 0.00 40 1013.7
20260508005802 85 244 4.0 9.0 0.00 0.00 0.00 40 1013.8
20260508005301 84 273 6.0 11.0 0.00 0.00 0.00 42 1013.7
20260508004759 83 22 7.0 15.0 0.00 0.00 0.00 45 1013.7
20260508004259 83 344 7.0 15.0 0.00 0.00 0.00 45 1013.7
20260508003759 83 319 6.0 14.0 0.00 0.00 0.00 45 1013.8
20260508003301 84 326 6.0 12.0 0.00 0.00 0.00 45 1013.9
20260508002759 83 5 5.0 10.0 0.00 0.00 0.00 46 1013.8
20260508002300 84 36 5.0 11.0 0.00 0.00 0.00 46 1013.9
20260508001758 84 11 5.0 11.0 0.00 0.00 0.00 45 1013.9
20260508001257 84 355 4.0 9.0 0.00 0.00 0.00 44 1013.9
20260508001014 84 5 4.0 9.0 0.00 0.00 0.00 45 1013.9
20260508000517 84 355 4.0 9.0 0.00 0.00 0.00 44 1013.9
20260507235757 84 13 4.0 9.0 0.00 0.00 0.00 45 1013.9
20260507235257 83 19 3.0 9.0 0.00 0.00 0.00 45 1014.0
20260507234754 83 50 3.0 8.0 0.00 0.00 0.00 47 1014.0
20260507234253 83 58 3.0 7.0 0.00 0.00 0.00 46 1014.1
20260507233751 83 32 3.0 8.0 0.00 0.00 0.00 48 1014.1
20260507233250 83 30 3.0 8.0 0.00 0.00 0.00 48 1014.1
20260507233011 83 18 3.0 7.0 0.00 0.00 0.00 48 1014.3
20260507232248 82 67 4.0 9.0 0.00 0.00 0.00 48 1014.3
20260507231749 83 49 4.0 10.0 0.00 0.00 0.00 48 1014.4
20260507231249 83 58 4.0 10.0 0.00 0.00 0.00 48 1014.4
20260507230749 83 350 4.0 9.0 0.00 0.00 0.00 47 1014.4
20260507230507 83 0 4.0 9.0 0.00 0.00 0.00 47 1014.5
20260507225746 83 334 3.0 9.0 0.00 0.00 0.00 48 1014.5
20260507225245 83 0 4.0 10.0 0.00 0.00 0.00 47 1014.7
20260507224745 83 315 5.0 11.0 0.00 0.00 0.00 47 1014.7
20260507224507 83 33 5.0 11.0 0.00 0.00 0.00 48 1014.8
20260507223745 83 41 5.0 11.0 0.00 0.00 0.00 48 1014.8
20260507223502 83 15 5.0 11.0 0.00 0.00 0.00 48 1014.8
20260507222732 83 342 5.0 11.0 0.00 0.00 0.00 48 1015.0
20260507222448 83 335 6.0 11.0 0.00 0.00 0.00 48 1015.1
20260507221731 83 0 6.0 10.0 0.00 0.00 0.00 49 1015.2
20260507221230 82 24 6.0 12.0 0.00 0.00 0.00 49 1015.3
20260507220731 82 27 6.0 12.0 0.00 0.00 0.00 48 1015.4
20260507220231 83 5 5.0 10.0 0.00 0.00 0.00 48 1015.3
20260507215732 82 329 4.0 10.0 0.00 0.00 0.00 49 1015.4
20260507215230 82 325 5.0 10.0 0.00 0.00 0.00 50 1015.4
20260507214230 82 22 4.0 10.0 0.00 0.00 0.00 49 1015.6
20260507213732 82 67 4.0 10.0 0.00 0.00 0.00 48 1015.7
20260507213722 82 0 5.0 10.0 0.00 0.00 0.00 48 1015.8
20260507212732 81 345 6.0 13.0 0.00 0.00 0.00 48 1015.8
20260507212231 82 346 6.0 13.0 0.00 0.00 0.00 48 1015.9
20260507211731 82 32 5.0 9.0 0.00 0.00 0.00 49 1015.9
20260507211231 82 323 5.0 9.0 0.00 0.00 0.00 48 1016.0
20260507210731 82 39 5.0 10.0 0.00 0.00 0.00 48 1016.1
20260507210229 81 336 4.0 11.0 0.00 0.00 0.00 48 1016.2
20260507205727 81 37 5.0 12.0 0.00 0.00 0.00 49 1016.2
20260507205225 81 305 6.0 12.0 0.00 0.00 0.00 48 1016.2
20260507204945 82 336 6.0 13.0 0.00 0.00 0.00 49 1016.3
20260507204222 80 32 5.0 13.0 0.00 0.00 0.00 50 1016.3
20260507203723 80 11 5.0 11.0 0.00 0.00 0.00 50 1016.4
20260507203220 81 15 5.0 11.0 0.00 0.00 0.00 50 1016.4
20260507202721 80 22 5.0 12.0 0.00 0.00 0.00 51 1016.4
20260507202222 80 49 5.0 12.0 0.00 0.00 0.00 51 1016.6
20260507201723 80 355 5.0 9.0 0.00 0.00 0.00 51 1016.6
20260507201448 80 17 5.0 11.0 0.00 0.00 0.00 50 1016.6
20260507200950 80 5 6.0 11.0 0.00 0.00 0.00 50 1016.6
20260507200216 79 5 5.0 11.0 0.00 0.00 0.00 52 1016.7
20260507195707 79 27 4.0 11.0 0.00 0.00 0.00 50 1016.8
20260507195207 79 5 4.0 10.0 0.00 0.00 0.00 52 1016.8
20260507194924 78 41 4.0 11.0 0.00 0.00 0.00 52 1016.9
20260507194205 79 311 4.0 11.0 0.00 0.00 0.00 52 1017.0
20260507193705 78 0 4.0 9.0 0.00 0.00 0.00 54 1017.0
20260507193205 77 13 4.0 11.0 0.00 0.00 0.00 53 1017.1
20260507192703 78 29 3.0 11.0 0.00 0.00 0.00 53 1017.2
20260507192203 77 327 4.0 10.0 0.00 0.00 0.00 53 1017.2
20260507191703 77 337 5.0 10.0 0.00 0.00 0.00 54 1017.2
20260507191201 77 53 4.0 10.0 0.00 0.00 0.00 53 1017.3
20260507190702 78 47 4.0 10.0 0.00 0.00 0.00 53 1017.2
20260507190201 77 317 4.0 9.0 0.00 0.00 0.00 53 1017.3
20260507185659 76 331 4.0 9.0 0.00 0.00 0.00 55 1017.3
20260507185152 77 355 4.0 9.0 0.00 0.00 0.00 53 1017.4
20260507184649 76 301 4.0 9.0 0.00 0.00 0.00 56 1017.4
20260507184146 75 18 3.0 9.0 0.00 0.00 0.00 56 1017.5
20260507183646 76 346 3.0 9.0 0.00 0.00 0.00 54 1017.6
20260507183631 77 340 2.0 9.0 0.00 0.00 0.00 55 1017.6
20260507182644 76 93 2.0 6.0 0.00 0.00 0.00 55 1017.7
20260507182404 75 85 3.0 7.0 0.00 0.00 0.00 56 1017.7
20260507181646 75 334 3.0 7.0 0.00 0.00 0.00 56 1017.7
20260507181144 75 5 3.0 8.0 0.00 0.00 0.00 56 1017.7
20260507180921 75 74 3.0 8.0 0.00 0.00 0.00 57 1017.7
20260507180140 74 69 2.0 8.0 0.00 0.00 0.00 58 1017.8
20260507175904 73 342 3.0 8.0 0.00 0.00 0.00 59 1017.8
20260507175141 73 5 3.0 8.0 0.00 0.00 0.00 60 1017.8
20260507174639 72 80 2.0 8.0 0.00 0.00 0.00 61 1017.8
20260507174139 72 313 2.0 8.0 0.00 0.00 0.00 60 1018.0
20260507173641 71 5 3.0 8.0 0.00 0.00 0.00 61 1017.9
20260507173615 72 84 2.0 5.0 0.00 0.00 0.00 61 1017.9
20260507172636 71 315 2.0 4.0 0.00 0.00 0.00 63 1017.8
20260507172134 70 331 3.0 8.0 0.00 0.00 0.00 63 1017.8
20260507171634 70 66 4.0 8.0 0.00 0.00 0.00 63 1017.9
20260507171134 70 9 3.0 7.0 0.00 0.00 0.00 63 1017.8
20260507170633 69 49 2.0 7.0 0.00 0.00 0.00 65 1017.9
20260507170130 70 80 2.0 8.0 0.00 0.00 0.00 64 1018.0
20260507165857 69 63 2.0 8.0 0.00 0.00 0.00 65 1018.0
20260507165131 70 146 1.0 6.0 0.00 0.00 0.00 65 1018.0
20260507164628 69 148 2.0 6.0 0.00 0.00 0.00 65 1018.1
20260507164128 69 120 2.0 6.0 0.00 0.00 0.00 66 1018.0
20260507163850 68 70 2.0 6.0 0.00 0.00 0.00 66 1018.1
20260507163124 67 128 1.0 5.0 0.00 0.00 0.00 67 1018.0
20260507162624 67 147 1.0 5.0 0.00 0.00 0.00 69 1018.0
20260507162345 64 207 1.0 3.0 0.00 0.00 0.00 75 1018.1
20260507161622 63 208 1.0 3.0 0.00 0.00 0.00 76 1018.1
20260507161348 62 208 1.0 3.0 0.00 0.00 0.00 77 1018.0
20260507160621 62 198 1.0 4.0 0.00 0.00 0.00 78 1018.1
20260507160120 61 198 1.0 4.0 0.00 0.00 0.00 79 1018.1
20260507155612 61 210 1.0 2.0 0.00 0.00 0.00 80 1018.1
20260507155110 60 211 1.0 2.0 0.00 0.00 0.00 81 1018.1
20260507154824 60 210 1.0 3.0 0.00 0.00 0.00 82 1018.1
20260507154104 59 213 1.0 3.0 0.00 0.00 0.00 84 1018.2
20260507153604 59 213 1.0 3.0 0.00 0.00 0.00 85 1018.2
20260507153327 58 213 1.0 4.0 0.00 0.00 0.00 85 1018.2
20260507152603 58 213 1.0 4.0 0.00 0.00 0.00 86 1018.2
20260507152101 57 248 1.0 2.0 0.00 0.00 0.00 86 1018.2
20260507151600 57 248 1.0 3.0 0.00 0.00 0.00 86 1018.3
20260507151059 57 249 0.0 3.0 0.00 0.00 0.00 86 1018.4
20260507150557 56 250 0.0 1.0 0.00 0.00 0.00 86 1018.3
20260507150055 56 250 1.0 2.0 0.00 0.00 0.00 86 1018.3
20260507145553 56 250 0.0 2.0 0.00 0.00 0.00 86 1018.4
20260507145050 56 250 0.0 1.0 0.00 0.00 0.00 86 1018.3
20260507144550 55 250 0.0 1.0 0.00 0.00 0.00 86 1018.3
20260507144050 55 250 0.0 2.0 0.00 0.00 0.00 86 1018.2
20260507143552 55 250 0.0 2.0 0.00 0.00 0.00 86 1018.2
20260507143533 55 250 1.0 2.0 0.00 0.00 0.00 86 1018.2
20260507142549 55 250 1.0 2.0 0.00 0.00 0.00 86 1018.2
20260507142048 55 252 0.0 2.0 0.00 0.00 0.00 86 1018.1
20260507141548 55 252 0.0 2.0 0.00 0.00 0.00 86 1018.1
20260507141048 54 252 1.0 2.0 0.00 0.00 0.00 85 1018.0
20260507140547 54 252 0.0 2.0 0.00 0.00 0.00 85 1018.0
20260507140047 54 253 0.0 2.0 0.00 0.00 0.00 85 1017.9
20260507135546 54 253 0.0 2.0 0.00 0.00 0.00 84 1018.0
20260507135048 54 254 0.0 2.0 0.00 0.00 0.00 84 1018.0
20260507134545 54 253 0.0 1.0 0.00 0.00 0.00 84 1017.9
20260507134045 54 253 0.0 1.0 0.00 0.00 0.00 83 1017.8
20260507133544 54 253 0.0 1.0 0.00 0.00 0.00 83 1017.7
20260507133044 54 253 0.0 1.0 0.00 0.00 0.00 83 1017.7
20260507132540 54 253 0.0 2.0 0.00 0.00 0.00 83 1017.6
20260507132041 54 253 0.0 2.0 0.00 0.00 0.00 83 1017.6
20260507131759 55 253 0.0 1.0 0.00 0.00 0.00 83 1017.5
20260507131036 55 253 0.0 1.0 0.00 0.00 0.00 83 1017.5
20260507130534 55 253 0.0 1.0 0.00 0.00 0.00 83 1017.4
20260507130034 55 253 0.0 1.0 0.00 0.00 0.00 83 1017.4
20260507125534 55 253 1.0 2.0 0.00 0.00 0.00 83 1017.4
20260507125253 55 254 1.0 2.0 0.00 0.00 0.00 83 1017.4
20260507124531 55 253 0.0 2.0 0.00 0.00 0.00 83 1017.4
20260507124239 55 253 1.0 3.0 0.00 0.00 0.00 83 1017.4
20260507123518 55 254 1.0 3.0 0.00 0.00 0.00 83 1017.4
20260507123239 55 253 1.0 3.0 0.00 0.00 0.00 82 1017.4
20260507122515 55 253 1.0 3.0 0.00 0.00 0.00 82 1017.4
20260507122011 55 242 1.0 3.0 0.00 0.00 0.00 82 1017.4
20260507121509 55 241 1.0 3.0 0.00 0.00 0.00 82 1017.4
20260507121008 55 232 1.0 3.0 0.00 0.00 0.00 81 1017.4
20260507120506 55 232 0.0 2.0 0.00 0.00 0.00 81 1017.3
20260507120008 55 201 0.0 0.0 0.00 0.00 0.00 81 1017.3
20260507115504 55 200 0.0 0.0 0.00 0.00 0.00 81 1017.3
20260507115002 56 200 0.0 0.0 0.00 0.00 0.00 81 1017.3
20260507114721 56 200 0.0 0.0 0.00 0.00 0.00 81 1017.3
20260507114002 56 200 0.0 0.0 0.00 0.00 0.00 81 1017.3
20260507113503 56 200 0.0 0.0 0.00 0.00 0.00 81 1017.3
20260507112955 56 200 0.0 0.0 0.00 0.00 0.00 81 1017.2
20260507112455 56 200 0.0 0.0 0.00 0.00 0.00 80 1017.2
20260507111948 56 200 0.0 0.0 0.00 0.00 0.00 80 1017.2
20260507111447 56 200 0.0 0.0 0.00 0.00 0.00 80 1017.1
20260507111203 56 200 0.0 0.0 0.00 0.00 0.00 80 1017.2
20260507110442 57 200 0.0 0.0 0.00 0.00 0.00 80 1017.2
20260507105940 57 200 0.0 0.0 0.00 0.00 0.00 80 1017.2
20260507105440 57 200 0.0 0.0 0.00 0.00 0.00 80 1017.2
20260507104941 57 200 0.0 0.0 0.00 0.00 0.00 80 1017.2
20260507104438 57 200 0.0 0.0 0.00 0.00 0.00 80 1017.2
20260507103936 57 200 0.0 0.0 0.00 0.00 0.00 80 1017.2
20260507103434 57 200 0.0 0.0 0.00 0.00 0.00 80 1017.3
20260507102933 57 200 0.0 0.0 0.00 0.00 0.00 80 1017.4
20260507102434 58 200 0.0 1.0 0.00 0.00 0.00 80 1017.3
20260507101935 58 200 0.0 2.0 0.00 0.00 0.00 80 1017.3
20260507101432 58 200 0.0 2.0 0.00 0.00 0.00 80 1017.3
20260507100932 58 200 0.0 1.0 0.00 0.00 0.00 80 1017.3
20260507100431 58 200 0.0 1.0 0.00 0.00 0.00 79 1017.3
20260507095930 58 200 0.0 1.0 0.00 0.00 0.00 79 1017.3
20260507095430 58 200 0.0 1.0 0.00 0.00 0.00 79 1017.3
20260507094929 58 200 0.0 1.0 0.00 0.00 0.00 79 1017.3
20260507094429 58 200 0.0 2.0 0.00 0.00 0.00 78 1017.3
20260507093927 58 200 1.0 2.0 0.00 0.00 0.00 78 1017.4
20260507093424 58 200 1.0 3.0 0.00 0.00 0.00 78 1017.3
20260507093142 58 201 1.0 3.0 0.00 0.00 0.00 78 1017.3
20260507092424 58 201 0.0 4.0 0.00 0.00 0.00 78 1017.4
20260507091920 59 201 1.0 4.0 0.00 0.00 0.00 77 1017.3
20260507091636 59 201 1.0 5.0 0.00 0.00 0.00 77 1017.3
20260507090917 59 201 2.0 5.0 0.00 0.00 0.00 77 1017.3
20260507090411 59 207 2.0 5.0 0.00 0.00 0.00 77 1017.3
20260507085912 59 225 2.0 4.0 0.00 0.00 0.00 77 1017.3
20260507085635 59 233 2.0 3.0 0.00 0.00 0.00 76 1017.2
20260507084909 59 236 1.0 3.0 0.00 0.00 0.00 76 1017.2
20260507084409 59 238 1.0 3.0 0.00 0.00 0.00 75 1017.3
20260507083908 60 239 1.0 2.0 0.00 0.00 0.00 75 1017.3
20260507083407 60 240 0.0 2.0 0.00 0.00 0.00 74 1017.3
20260507082909 60 240 0.0 2.0 0.00 0.00 0.00 74 1017.3
20260507082407 60 240 0.0 1.0 0.00 0.00 0.00 74 1017.3
20260507081904 60 240 0.0 1.0 0.00 0.00 0.00 74 1017.3
20260507081403 61 240 0.0 2.0 0.00 0.00 0.00 74 1017.3
20260507080859 61 240 0.0 2.0 0.00 0.00 0.00 74 1017.4
20260507080356 61 240 0.0 2.0 0.00 0.00 0.00 74 1017.3
20260507075854 61 240 0.0 2.0 0.00 0.00 0.00 74 1017.3
20260507075626 61 240 1.0 2.0 0.00 0.00 0.00 73 1017.3
20260507074854 61 240 1.0 3.0 0.00 0.00 0.00 73 1017.3
20260507074352 62 241 0.0 3.0 0.00 0.00 0.00 73 1017.3
20260507073849 62 241 1.0 3.0 0.00 0.00 0.00 73 1017.2
20260507073344 62 241 1.0 3.0 0.00 0.00 0.00 73 1017.3
20260507072842 62 242 1.0 3.0 0.00 0.00 0.00 72 1017.3
20260507072604 62 244 1.0 3.0 0.00 0.00 0.00 72 1017.3
20260507071841 62 246 0.0 2.0 0.00 0.00 0.00 72 1017.3
20260507071340 62 247 0.0 2.0 0.00 0.00 0.00 72 1017.2
20260507070840 63 247 0.0 2.0 0.00 0.00 0.00 71 1017.2
20260507070559 63 248 1.0 2.0 0.00 0.00 0.00 71 1017.2
20260507065839 63 248 1.0 3.0 0.00 0.00 0.00 71 1017.2
20260507065340 63 248 1.0 3.0 0.00 0.00 0.00 71 1017.2
20260507064838 63 215 1.0 3.0 0.00 0.00 0.00 71 1017.2
20260507064338 63 215 1.0 3.0 0.00 0.00 0.00 71 1017.1
20260507063832 63 211 1.0 3.0 0.00 0.00 0.00 70 1017.1
20260507063331 64 209 0.0 2.0 0.00 0.00 0.00 70 1017.1
20260507063038 64 209 1.0 4.0 0.00 0.00 0.00 70 1017.0
20260507062919 64 209 0.0 4.0 0.00 0.00 0.00 70 1017.0
20260507061830 64 209 2.0 4.0 0.00 0.00 0.00 70 1017.0
20260507061330 64 209 3.0 6.0 0.00 0.00 0.00 70 1017.0
20260507060828 64 260 3.0 7.0 0.00 0.00 0.00 70 1017.1
20260507060325 64 271 3.0 7.0 0.00 0.00 0.00 70 1017.0
20260507055826 64 270 3.0 7.0 0.00 0.00 0.00 70 1017.1
20260507055550 64 267 4.0 7.0 0.00 0.00 0.00 70 1017.1
20260507054825 64 253 4.0 9.0 0.00 0.00 0.00 71 1017.2
20260507054323 64 279 4.0 9.0 0.00 0.00 0.00 71 1017.2
20260507053824 64 273 2.0 6.0 0.00 0.00 0.00 70 1017.3
20260507053325 64 269 2.0 8.0 0.00 0.00 0.00 70 1017.3
20260507053050 64 267 2.0 8.0 0.00 0.00 0.00 70 1017.4
20260507052323 64 268 4.0 9.0 0.00 0.00 0.00 70 1017.4
20260507051821 64 262 5.0 9.0 0.00 0.00 0.00 70 1017.4
20260507051539 64 273 1.0 6.0 0.00 0.00 0.00 72 1017.4
20260507051421 64 278 3.0 8.0 0.00 0.00 0.00 71 1017.3
20260507050316 64 211 0.0 2.0 0.00 0.00 0.00 72 1017.5
20260507050032 64 211 1.0 2.0 0.00 0.00 0.00 72 1017.5
20260507045313 64 211 1.0 3.0 0.00 0.00 0.00 71 1017.5
20260507045032 65 211 2.0 4.0 0.00 0.00 0.00 71 1017.3
20260507044310 65 211 2.0 4.0 0.00 0.00 0.00 71 1017.5
20260507043808 65 205 1.0 3.0 0.00 0.00 0.00 71 1017.5
20260507043526 65 200 0.0 2.0 0.00 0.00 0.00 70 1017.4
20260507042806 66 200 1.0 3.0 0.00 0.00 0.00 69 1017.4
20260507042529 66 200 1.0 3.0 0.00 0.00 0.00 69 1017.3
20260507041802 67 200 2.0 4.0 0.00 0.00 0.00 67 1017.2
20260507041300 67 201 2.0 4.0 0.00 0.00 0.00 67 1017.1
20260507040759 67 225 2.0 4.0 0.00 0.00 0.00 66 1017.2
20260507040519 67 270 1.0 3.0 0.00 0.00 0.00 66 1017.1